Garrison, ND

9:22 PM CDT on July 21, 2017 (GMT -0500)
Garrison

Weather History for KN60 - November, 2013

Change the Weather History Date:

Monday, November 18, 2013

  Actual Average Record
Temperature  
Mean Temperature 27 °F -  
Max Temperature 40 °F - 54 °F (2007)
Min Temperature 14 °F - -2 °F (1996)
Degree Days  
Heating Degree Days 38    
Month to date heating degree days 587  
Cooling Degree Days 0    
Moisture  
Dew Point 24 °F    
Average Humidity 81    
Maximum Humidity 92    
Minimum Humidity 70    
Precipitation  
Precipitation 0.00 in - 0.79 in (1998)
Month to date precipitation 0.13  
Year to date precipitation 29.00  
Sea Level Pressure  
Sea Level Pressure 30.05 in    
Wind  
Wind Speed 8 mph (SSE)    
Max Wind Speed 16 mph    
Max Gust Speed 20 mph    
T = Trace of Precipitation, MM = Missing Value Source: NWS Daily Summary

Daily Weather History Graph

Daily Weather History Graph

Search for Another Location

Airport or City:

Trip Planner

Search our weather history database for the weather conditions in past years. The results will help you decide how hot, cold, wet, or windy it might be!

Date:

Astronomy

Nov. 18, 2013 Rise Set
Actual Time 7:55 AM CST 5:05 PM CST
Civil Twilight 7:21 AM CST 5:39 PM CST
Nautical Twilight 6:44 AM CST 6:17 PM CST
Astronomical Twilight 6:07 AM CST 6:53 PM CST
Moon 6:08 PM CST (11/18) 8:47 AM CST (11/18)
Length of Visible Light 10h 17m
Length of Day
9h 09m
Full, 99% of the Moon is Illuminated
Nov 18
Full
Nov 25
Last Quarter
Dec 2
New
Dec 9
First Quarter
Dec 17
Full

Hourly Weather History & Observations

Time (CST) Temp. Windchill Dew Point Humidity Pressure Visibility Wind Dir Wind Speed Gust Speed Precip Events Conditions
12:52 AM 27.0 °F 17.3 °F 21.9 °F 81% 30.04 in - NW 10.4 mph - N/A   Unknown
1:52 AM 21.9 °F 17.2 °F 18.0 °F 85% 30.05 in - WNW 3.5 mph - N/A   Unknown
2:52 AM 17.1 °F - 14.0 °F 88% 30.08 in - Calm Calm - N/A   Unknown
3:52 AM 19.0 °F 11.1 °F 16.0 °F 88% 30.09 in - West 5.8 mph - N/A   Unknown
4:52 AM 19.0 °F 12.3 °F 16.0 °F 88% 30.09 in - NNW 4.6 mph - N/A   Unknown
5:52 AM 19.9 °F 14.9 °F 17.1 °F 89% 30.10 in - North 3.5 mph - N/A   Unknown
6:52 AM 18.0 °F 12.7 °F 16.0 °F 92% 30.10 in - NNE 3.5 mph - N/A   Unknown
7:52 AM 16.0 °F 10.4 °F 12.9 °F 88% 30.12 in - East 3.5 mph - N/A   Unknown
8:52 AM 23.0 °F 14.7 °F 19.9 °F 88% 30.12 in - East 6.9 mph - N/A   Unknown
10:52 AM 28.9 °F 19.8 °F 25.0 °F 85% 30.12 in - SSE 10.4 mph - N/A   Unknown
11:52 AM 32.0 °F 22.1 °F 26.1 °F 79% 30.10 in - SSE 13.8 mph - N/A   Unknown
12:52 PM 34.0 °F 23.8 °F 27.0 °F 75% 30.07 in - SE 16.1 mph - N/A   Unknown
1:52 PM 37.0 °F 28.5 °F 28.9 °F 73% 30.05 in - SSE 13.8 mph - N/A   Unknown
2:52 PM 39.0 °F 30.6 °F 30.0 °F 70% 30.04 in - SSE 15.0 mph - N/A   Unknown
3:52 PM 39.9 °F 35.1 °F 30.9 °F 70% 30.03 in - South 6.9 mph - N/A   Unknown
4:52 PM 36.0 °F 30.3 °F 28.9 °F 76% 30.04 in - SE 6.9 mph - N/A   Unknown
5:52 PM 34.0 °F 27.2 °F 28.9 °F 82% 30.03 in - SE 8.1 mph - N/A   Unknown
6:52 PM 34.0 °F 28.8 °F 28.9 °F 82% 30.01 in - SSE 5.8 mph - N/A   Unknown
7:52 PM 33.1 °F 30.0 °F 28.9 °F 85% 30.00 in - ESE 3.5 mph - N/A   Unknown
8:52 PM 36.0 °F 29.6 °F 30.0 °F 79% 29.99 in - South 8.1 mph - N/A   Unknown
9:52 PM 35.1 °F 28.6 °F 28.9 °F 78% 29.97 in - South 8.1 mph - N/A   Unknown
10:52 PM 36.0 °F 29.0 °F 28.9 °F 76% 29.96 in - SSE 9.2 mph - N/A   Unknown
11:52 PM 35.1 °F 31.0 °F 28.0 °F 76% 29.94 in - South 4.6 mph - N/A   Unknown